| time (UTC) | temp F | wind direction | speed MPH | gust MPH | rain 1hr in | rain 24hr in | rain mn in | humidity % | barometer mb |
| 20260905145503 | 91 | 145 | 3.0 | 7.0 | 0.00 | 0.00 | 0.00 | 49 | 1011.2 |
| 20260905145003 | 91 | 139 | 4.0 | 9.0 | 0.00 | 0.00 | 0.00 | 49 | 1011.1 |
| 20260905144503 | 91 | 135 | 3.0 | 7.0 | 0.00 | 0.00 | 0.00 | 49 | 1011.2 |
| 20260905144003 | 91 | 150 | 3.0 | 7.0 | 0.00 | 0.00 | 0.00 | 51 | 1011.2 |
| 20260905143503 | 90 | 161 | 4.0 | 7.0 | 0.00 | 0.00 | 0.00 | 50 | 1011.2 |
| 20260905143003 | 90 | 170 | 5.0 | 10.0 | 0.00 | 0.00 | 0.00 | 49 | 1011.4 |
| 20260905142503 | 90 | 177 | 4.0 | 9.0 | 0.00 | 0.00 | 0.00 | 48 | 1011.3 |
| 20260905142003 | 90 | 155 | 4.0 | 9.0 | 0.00 | 0.00 | 0.00 | 50 | 1011.4 |
| 20260905141503 | 91 | 177 | 4.0 | 7.0 | 0.00 | 0.00 | 0.00 | 47 | 1011.3 |
| 20260905141003 | 91 | 185 | 4.0 | 8.0 | 0.00 | 0.00 | 0.00 | 49 | 1011.4 |
| 20260905140503 | 91 | 177 | 4.0 | 8.0 | 0.00 | 0.00 | 0.00 | 49 | 1011.3 |
| 20260905140004 | 90 | 180 | 5.0 | 9.0 | 0.00 | 0.00 | 0.00 | 49 | 1011.3 |
| 20260905135503 | 91 | 189 | 4.0 | 10.0 | 0.00 | 0.00 | 0.00 | 47 | 1011.5 |
| 20260905135003 | 91 | 181 | 3.0 | 7.0 | 0.00 | 0.00 | 0.00 | 48 | 1011.4 |
| 20260905134503 | 91 | 181 | 3.0 | 6.0 | 0.00 | 0.00 | 0.00 | 48 | 1011.5 |
| 20260905134003 | 91 | 175 | 4.0 | 8.0 | 0.00 | 0.00 | 0.00 | 48 | 1011.5 |
| 20260905133503 | 91 | 176 | 3.0 | 7.0 | 0.00 | 0.00 | 0.00 | 49 | 1011.6 |
| 20260905133003 | 90 | 192 | 4.0 | 7.0 | 0.00 | 0.00 | 0.00 | 49 | 1011.6 |
| 20260905132503 | 89 | 193 | 6.0 | 11.0 | 0.00 | 0.00 | 0.00 | 50 | 1011.7 |
| 20260905132003 | 90 | 179 | 4.0 | 9.0 | 0.00 | 0.00 | 0.00 | 50 | 1011.8 |
| 20260905131503 | 89 | 193 | 5.0 | 9.0 | 0.00 | 0.00 | 0.00 | 51 | 1011.8 |
| 20260905131003 | 89 | 196 | 5.0 | 11.0 | 0.00 | 0.00 | 0.00 | 52 | 1011.9 |
| 20260905130503 | 89 | 190 | 5.0 | 9.0 | 0.00 | 0.00 | 0.00 | 52 | 1012.0 |
| 20260905130003 | 89 | 190 | 6.0 | 11.0 | 0.00 | 0.00 | 0.00 | 51 | 1012.0 |
| 20260905125503 | 89 | 193 | 5.0 | 9.0 | 0.00 | 0.00 | 0.00 | 52 | 1012.0 |
| 20260905125003 | 89 | 181 | 5.0 | 11.0 | 0.00 | 0.00 | 0.00 | 51 | 1012.1 |
| 20260905124503 | 89 | 192 | 5.0 | 12.0 | 0.00 | 0.00 | 0.00 | 50 | 1012.2 |
| 20260905124003 | 89 | 195 | 6.0 | 11.0 | 0.00 | 0.00 | 0.00 | 49 | 1012.2 |
| 20260905123503 | 90 | 201 | 5.0 | 11.0 | 0.00 | 0.00 | 0.00 | 46 | 1012.2 |
| 20260905123003 | 90 | 191 | 5.0 | 10.0 | 0.00 | 0.00 | 0.00 | 49 | 1012.3 |
| 20260905122503 | 89 | 187 | 5.0 | 10.0 | 0.00 | 0.00 | 0.00 | 49 | 1012.3 |
| 20260905122003 | 89 | 191 | 5.0 | 10.0 | 0.00 | 0.00 | 0.00 | 49 | 1012.3 |
| 20260905121504 | 90 | 205 | 5.0 | 10.0 | 0.00 | 0.00 | 0.00 | 47 | 1012.3 |
| 20260905121003 | 91 | 191 | 4.0 | 9.0 | 0.00 | 0.00 | 0.00 | 46 | 1012.3 |
| 20260905120503 | 90 | 193 | 4.0 | 8.0 | 0.00 | 0.00 | 0.00 | 44 | 1012.4 |
| 20260905120003 | 90 | 193 | 5.0 | 10.0 | 0.00 | 0.00 | 0.00 | 44 | 1012.5 |
| 20260905115503 | 90 | 198 | 5.0 | 9.0 | 0.00 | 0.00 | 0.00 | 43 | 1012.4 |
| 20260905115003 | 90 | 188 | 4.0 | 8.0 | 0.00 | 0.00 | 0.00 | 44 | 1012.3 |
| 20260905114503 | 90 | 186 | 5.0 | 8.0 | 0.00 | 0.00 | 0.00 | 41 | 1012.4 |
| 20260905114003 | 90 | 194 | 4.0 | 9.0 | 0.00 | 0.00 | 0.00 | 43 | 1012.4 |
| 20260905113503 | 89 | 192 | 5.0 | 9.0 | 0.00 | 0.00 | 0.00 | 40 | 1012.4 |
| 20260905113003 | 89 | 216 | 5.0 | 10.0 | 0.00 | 0.00 | 0.00 | 41 | 1012.5 |
| 20260905112503 | 89 | 204 | 4.0 | 7.0 | 0.00 | 0.00 | 0.00 | 41 | 1012.4 |
| 20260905112003 | 90 | 198 | 4.0 | 7.0 | 0.00 | 0.00 | 0.00 | 44 | 1012.6 |
| 20260905111503 | 90 | 199 | 5.0 | 9.0 | 0.00 | 0.00 | 0.00 | 43 | 1012.6 |
| 20260905111003 | 90 | 203 | 5.0 | 9.0 | 0.00 | 0.00 | 0.00 | 43 | 1012.5 |
| 20260905110503 | 90 | 201 | 3.0 | 9.0 | 0.00 | 0.00 | 0.00 | 40 | 1012.5 |
| 20260905110003 | 89 | 210 | 6.0 | 9.0 | 0.00 | 0.00 | 0.00 | 39 | 1012.4 |
| 20260905105503 | 89 | 209 | 5.0 | 9.0 | 0.00 | 0.00 | 0.00 | 44 | 1012.6 |
| 20260905105003 | 89 | 207 | 5.0 | 9.0 | 0.00 | 0.00 | 0.00 | 43 | 1012.6 |
| 20260905104503 | 89 | 206 | 6.0 | 9.0 | 0.00 | 0.00 | 0.00 | 42 | 1012.7 |
| 20260905104003 | 90 | 201 | 5.0 | 9.0 | 0.00 | 0.00 | 0.00 | 38 | 1012.7 |
| 20260905103503 | 90 | 201 | 4.0 | 8.0 | 0.00 | 0.00 | 0.00 | 39 | 1012.7 |
| 20260905103003 | 91 | 209 | 5.0 | 9.0 | 0.00 | 0.00 | 0.00 | 37 | 1012.7 |
| 20260905102503 | 91 | 207 | 4.0 | 9.0 | 0.00 | 0.00 | 0.00 | 33 | 1012.7 |
| 20260905102003 | 90 | 205 | 5.0 | 9.0 | 0.00 | 0.00 | 0.00 | 35 | 1012.7 |
| 20260905101503 | 91 | 199 | 4.0 | 7.0 | 0.00 | 0.00 | 0.00 | 37 | 1012.9 |
| 20260905101003 | 89 | 209 | 4.0 | 8.0 | 0.00 | 0.00 | 0.00 | 39 | 1012.9 |
| 20260905100503 | 89 | 201 | 4.0 | 7.0 | 0.00 | 0.00 | 0.00 | 43 | 1012.9 |
| 20260905100003 | 89 | 193 | 4.0 | 8.0 | 0.00 | 0.00 | 0.00 | 45 | 1013.0 |
| 20260905095503 | 88 | 186 | 3.0 | 7.0 | 0.00 | 0.00 | 0.00 | 50 | 1012.9 |
| 20260905095003 | 88 | 205 | 5.0 | 9.0 | 0.00 | 0.00 | 0.00 | 46 | 1012.9 |
| 20260905094503 | 88 | 211 | 4.0 | 8.0 | 0.00 | 0.00 | 0.00 | 47 | 1013.0 |
| 20260905094003 | 87 | 209 | 6.0 | 9.0 | 0.00 | 0.00 | 0.00 | 49 | 1013.2 |
| 20260905093503 | 88 | 200 | 4.0 | 9.0 | 0.00 | 0.00 | 0.00 | 48 | 1013.2 |
| 20260905093003 | 88 | 197 | 3.0 | 7.0 | 0.00 | 0.00 | 0.00 | 46 | 1013.1 |
| 20260905092503 | 88 | 210 | 4.0 | 7.0 | 0.00 | 0.00 | 0.00 | 46 | 1013.1 |
| 20260905092003 | 88 | 209 | 3.0 | 6.0 | 0.00 | 0.00 | 0.00 | 46 | 1013.2 |
| 20260905091504 | 88 | 214 | 4.0 | 7.0 | 0.00 | 0.00 | 0.00 | 41 | 1013.2 |
| 20260905091003 | 89 | 209 | 4.0 | 9.0 | 0.00 | 0.00 | 0.00 | 42 | 1013.1 |
| 20260905090503 | 88 | 230 | 4.0 | 8.0 | 0.00 | 0.00 | 0.00 | 40 | 1013.1 |
| 20260905090003 | 88 | 233 | 3.0 | 9.0 | 0.00 | 0.00 | 0.00 | 37 | 1013.2 |
| 20260905085503 | 87 | 227 | 4.0 | 7.0 | 0.00 | 0.00 | 0.00 | 38 | 1013.2 |
| 20260905085003 | 87 | 230 | 4.0 | 8.0 | 0.00 | 0.00 | 0.00 | 39 | 1013.3 |
| 20260905084503 | 86 | 224 | 5.0 | 9.0 | 0.00 | 0.00 | 0.00 | 43 | 1013.2 |
| 20260905084003 | 86 | 213 | 4.0 | 6.0 | 0.00 | 0.00 | 0.00 | 45 | 1013.3 |
| 20260905083503 | 86 | 218 | 4.0 | 8.0 | 0.00 | 0.00 | 0.00 | 48 | 1013.4 |
| 20260905083003 | 85 | 221 | 4.0 | 8.0 | 0.00 | 0.00 | 0.00 | 49 | 1013.3 |
| 20260905082503 | 85 | 208 | 3.0 | 6.0 | 0.00 | 0.00 | 0.00 | 51 | 1013.4 |
| 20260905082003 | 85 | 216 | 5.0 | 9.0 | 0.00 | 0.00 | 0.00 | 51 | 1013.3 |
| 20260905081503 | 85 | 214 | 3.0 | 6.0 | 0.00 | 0.00 | 0.00 | 51 | 1013.1 |
| 20260905081003 | 84 | 215 | 4.0 | 7.0 | 0.00 | 0.00 | 0.00 | 52 | 1012.9 |
| 20260905080503 | 84 | 233 | 5.0 | 11.0 | 0.00 | 0.00 | 0.00 | 51 | 1013.2 |
| 20260905080003 | 84 | 243 | 3.0 | 7.0 | 0.00 | 0.00 | 0.00 | 51 | 1013.1 |
| 20260905075503 | 84 | 218 | 5.0 | 9.0 | 0.00 | 0.00 | 0.00 | 51 | 1013.1 |
| 20260905075003 | 84 | 228 | 3.0 | 8.0 | 0.00 | 0.00 | 0.00 | 52 | 1012.9 |
| 20260905074503 | 84 | 208 | 3.0 | 6.0 | 0.00 | 0.00 | 0.00 | 53 | 1012.7 |
| 20260905074003 | 84 | 206 | 2.0 | 5.0 | 0.00 | 0.00 | 0.00 | 54 | 1012.7 |
| 20260905073503 | 83 | 218 | 2.0 | 5.0 | 0.00 | 0.00 | 0.00 | 54 | 1012.6 |
| 20260905073003 | 84 | 212 | 3.0 | 6.0 | 0.00 | 0.00 | 0.00 | 53 | 1012.8 |
| 20260905072503 | 84 | 204 | 3.0 | 4.0 | 0.00 | 0.00 | 0.00 | 51 | 1012.7 |
| 20260905072003 | 84 | 229 | 2.0 | 4.0 | 0.00 | 0.00 | 0.00 | 51 | 1012.6 |
| 20260905071503 | 84 | 224 | 2.0 | 4.0 | 0.00 | 0.00 | 0.00 | 49 | 1012.5 |
| 20260905071003 | 85 | 223 | 2.0 | 5.0 | 0.00 | 0.00 | 0.00 | 47 | 1012.5 |
| 20260905070503 | 86 | 285 | 1.0 | 3.0 | 0.00 | 0.00 | 0.00 | 44 | 1012.6 |
| 20260905070003 | 86 | 292 | 0.0 | 2.0 | 0.00 | 0.00 | 0.00 | 44 | 1012.5 |
| 20260905065503 | 85 | 292 | 0.0 | 2.0 | 0.00 | 0.00 | 0.00 | 44 | 1012.6 |
| 20260905065003 | 85 | 292 | 0.0 | 2.0 | 0.00 | 0.00 | 0.00 | 45 | 1012.6 |
| 20260905064503 | 84 | 236 | 0.0 | 2.0 | 0.00 | 0.00 | 0.00 | 46 | 1012.4 |
| 20260905064003 | 85 | 338 | 1.0 | 2.0 | 0.00 | 0.00 | 0.00 | 46 | 1012.5 |
| 20260905063503 | 85 | 4 | 0.0 | 2.0 | 0.00 | 0.00 | 0.00 | 48 | 1012.5 |
| 20260905063003 | 84 | 22 | 0.0 | 1.0 | 0.00 | 0.00 | 0.00 | 49 | 1012.5 |
| 20260905062503 | 83 | 0 | 0.0 | 0.0 | 0.00 | 0.00 | 0.00 | 50 | 1012.7 |
| 20260905062003 | 82 | 22 | 1.0 | 2.0 | 0.00 | 0.00 | 0.00 | 51 | 1012.6 |
| 20260905061503 | 81 | 22 | 1.0 | 2.0 | 0.00 | 0.00 | 0.00 | 51 | 1012.6 |
| 20260905061003 | 81 | 17 | 1.0 | 2.0 | 0.00 | 0.00 | 0.00 | 52 | 1012.6 |
| 20260905060503 | 80 | 360 | 1.0 | 2.0 | 0.00 | 0.00 | 0.00 | 52 | 1012.6 |
| 20260905060003 | 80 | 1 | 2.0 | 2.0 | 0.00 | 0.00 | 0.00 | 53 | 1012.7 |
| 20260905055503 | 79 | 27 | 0.0 | 2.0 | 0.00 | 0.00 | 0.00 | 53 | 1012.8 |
| 20260905055003 | 79 | 45 | 1.0 | 2.0 | 0.00 | 0.00 | 0.00 | 54 | 1012.7 |
| 20260905054503 | 78 | 45 | 0.0 | 1.0 | 0.00 | 0.00 | 0.00 | 55 | 1012.7 |
| 20260905054003 | 77 | 25 | 1.0 | 2.0 | 0.00 | 0.00 | 0.00 | 56 | 1012.7 |
| 20260905053503 | 76 | 360 | 1.0 | 3.0 | 0.00 | 0.00 | 0.00 | 57 | 1012.6 |
| 20260905053003 | 76 | 12 | 2.0 | 2.0 | 0.00 | 0.00 | 0.00 | 58 | 1012.6 |
| 20260905052503 | 75 | 4 | 1.0 | 3.0 | 0.00 | 0.00 | 0.00 | 59 | 1012.5 |
| 20260905052003 | 74 | 360 | 1.0 | 2.0 | 0.00 | 0.00 | 0.00 | 59 | 1012.5 |
| 20260905051503 | 74 | 4 | 2.0 | 3.0 | 0.00 | 0.00 | 0.00 | 60 | 1012.5 |
| 20260905051003 | 74 | 23 | 2.0 | 3.0 | 0.00 | 0.00 | 0.00 | 61 | 1012.4 |
| 20260905050503 | 74 | 15 | 2.0 | 4.0 | 0.00 | 0.00 | 0.00 | 62 | 1012.5 |
| 20260905050003 | 74 | 3 | 2.0 | 3.0 | 0.00 | 0.00 | 0.00 | 63 | 1012.5 |
| 20260905045503 | 74 | 343 | 2.0 | 3.0 | 0.00 | 0.00 | 0.00 | 64 | 1012.5 |
| 20260905045003 | 74 | 337 | 1.0 | 2.0 | 0.00 | 0.00 | 0.00 | 64 | 1012.5 |
| 20260905044503 | 74 | 337 | 1.0 | 2.0 | 0.00 | 0.00 | 0.00 | 64 | 1012.4 |
| 20260905044003 | 74 | 340 | 1.0 | 3.0 | 0.00 | 0.00 | 0.00 | 64 | 1012.3 |
| 20260905043503 | 74 | 360 | 2.0 | 3.0 | 0.00 | 0.00 | 0.00 | 64 | 1012.3 |
| 20260905043003 | 75 | 12 | 2.0 | 3.0 | 0.00 | 0.00 | 0.00 | 64 | 1012.3 |
| 20260905042503 | 76 | 339 | 2.0 | 3.0 | 0.00 | 0.00 | 0.00 | 64 | 1012.2 |
| 20260905042004 | 76 | 334 | 2.0 | 3.0 | 0.00 | 0.00 | 0.00 | 63 | 1012.2 |
| 20260905041503 | 76 | 335 | 2.0 | 4.0 | 0.00 | 0.00 | 0.00 | 63 | 1012.2 |
| 20260905041003 | 76 | 328 | 2.0 | 4.0 | 0.00 | 0.00 | 0.00 | 62 | 1012.2 |
| 20260905040503 | 76 | 315 | 2.0 | 3.0 | 0.00 | 0.00 | 0.00 | 61 | 1012.0 |
| 20260905040003 | 76 | 315 | 1.0 | 3.0 | 0.00 | 0.00 | 0.00 | 61 | 1012.0 |
| 20260905035503 | 76 | 326 | 1.0 | 4.0 | 0.00 | 0.00 | 0.00 | 61 | 1012.0 |
| 20260905035003 | 76 | 299 | 1.0 | 3.0 | 0.00 | 0.00 | 0.00 | 61 | 1012.1 |
| 20260905034503 | 76 | 276 | 1.0 | 2.0 | 0.00 | 0.00 | 0.00 | 61 | 1012.0 |
| 20260905034003 | 76 | 299 | 0.0 | 2.0 | 0.00 | 0.00 | 0.00 | 62 | 1012.0 |
| 20260905033503 | 76 | 274 | 1.0 | 3.0 | 0.00 | 0.00 | 0.00 | 63 | 1012.1 |
| 20260905033003 | 76 | 271 | 0.0 | 2.0 | 0.00 | 0.00 | 0.00 | 63 | 1011.9 |
| 20260905032503 | 76 | 270 | 0.0 | 3.0 | 0.00 | 0.00 | 0.00 | 64 | 1011.9 |
| 20260905032003 | 76 | 289 | 1.0 | 2.0 | 0.00 | 0.00 | 0.00 | 64 | 1011.9 |
| 20260905031503 | 76 | 279 | 2.0 | 4.0 | 0.00 | 0.00 | 0.00 | 64 | 1011.9 |
| 20260905031003 | 76 | 285 | 1.0 | 3.0 | 0.00 | 0.00 | 0.00 | 63 | 1011.9 |
| 20260905030503 | 76 | 311 | 1.0 | 2.0 | 0.00 | 0.00 | 0.00 | 63 | 1011.9 |
| 20260905030003 | 76 | 325 | 1.0 | 4.0 | 0.00 | 0.00 | 0.00 | 63 | 1012.2 |
| 20260905025503 | 76 | 318 | 1.0 | 3.0 | 0.00 | 0.00 | 0.00 | 63 | 1012.0 |
| 20260905025003 | 76 | 314 | 2.0 | 3.0 | 0.00 | 0.00 | 0.00 | 63 | 1012.1 |
| 20260905024503 | 77 | 315 | 2.0 | 3.0 | 0.00 | 0.00 | 0.00 | 63 | 1012.0 |
| 20260905024003 | 77 | 338 | 2.0 | 4.0 | 0.00 | 0.00 | 0.00 | 62 | 1012.2 |
| 20260905023503 | 77 | 315 | 2.0 | 4.0 | 0.00 | 0.00 | 0.00 | 62 | 1012.2 |
| 20260905023003 | 77 | 283 | 1.0 | 3.0 | 0.00 | 0.00 | 0.00 | 62 | 1012.1 |
| 20260905022503 | 78 | 314 | 1.0 | 3.0 | 0.00 | 0.00 | 0.00 | 62 | 1012.1 |
| 20260905022003 | 78 | 303 | 1.0 | 2.0 | 0.00 | 0.00 | 0.00 | 61 | 1012.2 |
| 20260905021503 | 78 | 301 | 1.0 | 3.0 | 0.00 | 0.00 | 0.00 | 61 | 1012.0 |
| 20260905021003 | 78 | 292 | 1.0 | 3.0 | 0.00 | 0.00 | 0.00 | 61 | 1012.1 |
| 20260905020503 | 78 | 277 | 1.0 | 2.0 | 0.00 | 0.00 | 0.00 | 60 | 1012.1 |
| 20260905020003 | 78 | 272 | 1.0 | 3.0 | 0.00 | 0.00 | 0.00 | 59 | 1012.2 |
| 20260905015503 | 78 | 273 | 1.0 | 2.0 | 0.00 | 0.00 | 0.00 | 59 | 1012.3 |
| 20260905015003 | 78 | 272 | 1.0 | 2.0 | 0.00 | 0.00 | 0.00 | 59 | 1012.2 |
| 20260905014503 | 78 | 271 | 1.0 | 2.0 | 0.00 | 0.00 | 0.00 | 59 | 1012.3 |
| 20260905014003 | 78 | 275 | 1.0 | 2.0 | 0.00 | 0.00 | 0.00 | 59 | 1012.2 |
| 20260905013503 | 78 | 301 | 0.0 | 2.0 | 0.00 | 0.00 | 0.00 | 59 | 1012.2 |
| 20260905013003 | 78 | 277 | 1.0 | 2.0 | 0.00 | 0.00 | 0.00 | 59 | 1012.3 |
| 20260905012503 | 78 | 279 | 1.0 | 3.0 | 0.00 | 0.00 | 0.00 | 59 | 1012.3 |
| 20260905012003 | 78 | 267 | 1.0 | 2.0 | 0.00 | 0.00 | 0.00 | 59 | 1012.4 |
| 20260905011503 | 78 | 277 | 1.0 | 3.0 | 0.00 | 0.00 | 0.00 | 59 | 1012.4 |
| 20260905011003 | 78 | 268 | 1.0 | 3.0 | 0.00 | 0.00 | 0.00 | 59 | 1012.3 |
| 20260905010503 | 78 | 260 | 1.0 | 4.0 | 0.00 | 0.00 | 0.00 | 58 | 1012.4 |
| 20260905010003 | 78 | 254 | 1.0 | 2.0 | 0.00 | 0.00 | 0.00 | 57 | 1012.3 |
| 20260905005503 | 78 | 253 | 1.0 | 4.0 | 0.00 | 0.00 | 0.00 | 56 | 1012.3 |
| 20260905005003 | 77 | 265 | 1.0 | 3.0 | 0.00 | 0.00 | 0.00 | 55 | 1012.3 |
| 20260905004503 | 78 | 0 | 0.0 | 0.0 | 0.00 | 0.00 | 0.00 | 56 | 1012.3 |
| 20260905004003 | 78 | 0 | 0.0 | 0.0 | 0.00 | 0.00 | 0.00 | 57 | 1012.3 |
| 20260905003503 | 78 | 292 | 0.0 | 2.0 | 0.00 | 0.00 | 0.00 | 57 | 1012.3 |
| 20260905003003 | 78 | 292 | 0.0 | 1.0 | 0.00 | 0.00 | 0.00 | 58 | 1012.4 |
| 20260905002503 | 78 | 264 | 1.0 | 2.0 | 0.00 | 0.00 | 0.00 | 58 | 1012.3 |
| 20260905002003 | 78 | 272 | 1.0 | 3.0 | 0.00 | 0.00 | 0.00 | 58 | 1012.4 |
| 20260905001503 | 78 | 254 | 1.0 | 2.0 | 0.00 | 0.00 | 0.00 | 59 | 1012.4 |
| 20260905001003 | 78 | 225 | 0.0 | 1.0 | 0.00 | 0.00 | 0.00 | 59 | 1012.2 |
| 20260905000503 | 78 | 225 | 0.0 | 1.0 | 0.00 | 0.00 | 0.00 | 58 | 1012.2 |
| 20260905000003 | 77 | 225 | 0.0 | 1.0 | 0.00 | 0.00 | 0.00 | 57 | 1012.2 |
| 20260904235503 | 77 | 225 | 0.0 | 1.0 | 0.00 | 0.00 | 0.00 | 56 | 1012.2 |
| 20260904235003 | 78 | 229 | 1.0 | 2.0 | 0.00 | 0.00 | 0.00 | 56 | 1012.2 |
| 20260904234503 | 77 | 274 | 1.0 | 2.0 | 0.00 | 0.00 | 0.00 | 55 | 1012.3 |
| 20260904234003 | 77 | 292 | 0.0 | 1.0 | 0.00 | 0.00 | 0.00 | 55 | 1012.3 |
| 20260904233503 | 77 | 292 | 0.0 | 1.0 | 0.00 | 0.00 | 0.00 | 54 | 1012.3 |
| 20260904233003 | 77 | 292 | 0.0 | 1.0 | 0.00 | 0.00 | 0.00 | 54 | 1012.3 |
| 20260904232503 | 77 | 292 | 0.0 | 2.0 | 0.00 | 0.00 | 0.00 | 54 | 1012.2 |
| 20260904232003 | 77 | 292 | 0.0 | 2.0 | 0.00 | 0.00 | 0.00 | 53 | 1012.3 |
| 20260904231503 | 77 | 0 | 0.0 | 0.0 | 0.00 | 0.00 | 0.00 | 53 | 1012.3 |
| 20260904231003 | 77 | 292 | 0.0 | 1.0 | 0.00 | 0.00 | 0.00 | 52 | 1012.3 |
| 20260904230503 | 77 | 0 | 0.0 | 0.0 | 0.00 | 0.00 | 0.00 | 52 | 1012.3 |
| 20260904230003 | 78 | 0 | 0.0 | 0.0 | 0.00 | 0.00 | 0.00 | 51 | 1012.3 |
| 20260904225503 | 78 | 292 | 0.0 | 1.0 | 0.00 | 0.00 | 0.00 | 51 | 1012.6 |
| 20260904225003 | 78 | 292 | 0.0 | 2.0 | 0.00 | 0.00 | 0.00 | 51 | 1012.6 |
| 20260904224503 | 78 | 292 | 0.0 | 1.0 | 0.00 | 0.00 | 0.00 | 50 | 1012.4 |
| 20260904224003 | 78 | 292 | 0.0 | 1.0 | 0.00 | 0.00 | 0.00 | 50 | 1012.6 |
| 20260904223503 | 78 | 296 | 0.0 | 2.0 | 0.00 | 0.00 | 0.00 | 50 | 1012.5 |
| 20260904223003 | 77 | 315 | 0.0 | 1.0 | 0.00 | 0.00 | 0.00 | 49 | 1012.4 |
| 20260904222503 | 77 | 0 | 0.0 | 0.0 | 0.00 | 0.00 | 0.00 | 48 | 1012.5 |
| 20260904222003 | 78 | 0 | 0.0 | 0.0 | 0.00 | 0.00 | 0.00 | 47 | 1012.5 |
| 20260904221503 | 78 | 315 | 0.0 | 2.0 | 0.00 | 0.00 | 0.00 | 47 | 1012.6 |
| 20260904221003 | 78 | 0 | 0.0 | 0.0 | 0.00 | 0.00 | 0.00 | 47 | 1012.6 |
| 20260904220503 | 78 | 315 | 0.0 | 1.0 | 0.00 | 0.00 | 0.00 | 47 | 1012.6 |
| 20260904220004 | 78 | 315 | 0.0 | 1.0 | 0.00 | 0.00 | 0.00 | 46 | 1012.6 |
| 20260904215503 | 78 | 0 | 0.0 | 0.0 | 0.00 | 0.00 | 0.00 | 46 | 1012.5 |
| 20260904215003 | 78 | 315 | 0.0 | 7.0 | 0.00 | 0.00 | 0.00 | 45 | 1012.6 |
| 20260904214503 | 78 | 0 | 0.0 | 0.0 | 0.00 | 0.00 | 0.00 | 45 | 1012.4 |
| 20260904214003 | 79 | 316 | 0.0 | 2.0 | 0.00 | 0.00 | 0.00 | 44 | 1012.4 |
| 20260904213503 | 79 | 320 | 0.0 | 1.0 | 0.00 | 0.00 | 0.00 | 44 | 1012.3 |
| 20260904213003 | 79 | 315 | 0.0 | 1.0 | 0.00 | 0.00 | 0.00 | 44 | 1012.3 |
| 20260904212503 | 80 | 0 | 0.0 | 0.0 | 0.00 | 0.00 | 0.00 | 44 | 1012.3 |
| 20260904212003 | 80 | 0 | 0.0 | 0.0 | 0.00 | 0.00 | 0.00 | 43 | 1012.1 |
| 20260904211503 | 80 | 315 | 0.0 | 1.0 | 0.00 | 0.00 | 0.00 | 42 | 1012.2 |
| 20260904211003 | 80 | 315 | 0.0 | 1.0 | 0.00 | 0.00 | 0.00 | 42 | 1012.1 |
| 20260904210503 | 80 | 315 | 1.0 | 2.0 | 0.00 | 0.00 | 0.00 | 42 | 1012.1 |
| 20260904210005 | 81 | 315 | 1.0 | 2.0 | 0.00 | 0.00 | 0.00 | 42 | 1012.1 |
| 20260904205503 | 81 | 282 | 0.0 | 1.0 | 0.00 | 0.00 | 0.00 | 41 | 1012.2 |
| 20260904205003 | 81 | 253 | 1.0 | 2.0 | 0.00 | 0.00 | 0.00 | 41 | 1012.3 |
| 20260904204503 | 81 | 207 | 1.0 | 2.0 | 0.00 | 0.00 | 0.00 | 39 | 1012.2 |
| 20260904204003 | 81 | 212 | 1.0 | 3.0 | 0.00 | 0.00 | 0.00 | 38 | 1012.2 |
| 20260904203503 | 82 | 265 | 1.0 | 2.0 | 0.00 | 0.00 | 0.00 | 37 | 1012.2 |
| 20260904203003 | 83 | 315 | 0.0 | 1.0 | 0.00 | 0.00 | 0.00 | 36 | 1012.1 |
| 20260904202503 | 83 | 315 | 0.0 | 3.0 | 0.00 | 0.00 | 0.00 | 36 | 1012.2 |
| 20260904202003 | 83 | 325 | 1.0 | 3.0 | 0.00 | 0.00 | 0.00 | 36 | 1012.2 |
| 20260904201503 | 83 | 326 | 2.0 | 5.0 | 0.00 | 0.00 | 0.00 | 36 | 1012.1 |
| 20260904201003 | 83 | 343 | 3.0 | 6.0 | 0.00 | 0.00 | 0.00 | 36 | 1012.1 |
| 20260904200503 | 83 | 351 | 3.0 | 6.0 | 0.00 | 0.00 | 0.00 | 36 | 1012.1 |
| 20260904200003 | 83 | 342 | 4.0 | 8.0 | 0.00 | 0.00 | 0.00 | 36 | 1012.1 |
| 20260904195503 | 83 | 339 | 3.0 | 6.0 | 0.00 | 0.00 | 0.00 | 37 | 1012.1 |
| 20260904195003 | 83 | 333 | 4.0 | 8.0 | 0.00 | 0.00 | 0.00 | 37 | 1012.2 |
| 20260904194503 | 83 | 337 | 3.0 | 5.0 | 0.00 | 0.00 | 0.00 | 38 | 1012.1 |
| 20260904194003 | 83 | 332 | 3.0 | 5.0 | 0.00 | 0.00 | 0.00 | 38 | 1012.2 |
| 20260904193503 | 83 | 325 | 3.0 | 6.0 | 0.00 | 0.00 | 0.00 | 39 | 1012.1 |
| 20260904193003 | 83 | 335 | 3.0 | 5.0 | 0.00 | 0.00 | 0.00 | 39 | 1012.3 |
| 20260904192503 | 83 | 328 | 3.0 | 5.0 | 0.00 | 0.00 | 0.00 | 40 | 1012.3 |
| 20260904192003 | 82 | 319 | 2.0 | 5.0 | 0.00 | 0.00 | 0.00 | 41 | 1012.3 |
| 20260904191503 | 82 | 307 | 0.0 | 2.0 | 0.00 | 0.00 | 0.00 | 42 | 1012.3 |
| 20260904191003 | 82 | 337 | 1.0 | 3.0 | 0.00 | 0.00 | 0.00 | 42 | 1012.3 |
| 20260904190503 | 82 | 337 | 1.0 | 2.0 | 0.00 | 0.00 | 0.00 | 41 | 1012.2 |
| 20260904190003 | 83 | 357 | 2.0 | 3.0 | 0.00 | 0.00 | 0.00 | 41 | 1012.1 |
| 20260904185503 | 83 | 16 | 2.0 | 4.0 | 0.00 | 0.00 | 0.00 | 41 | 1012.2 |
| 20260904185003 | 83 | 349 | 2.0 | 5.0 | 0.00 | 0.00 | 0.00 | 40 | 1012.1 |
| 20260904184503 | 83 | 1 | 2.0 | 4.0 | 0.00 | 0.00 | 0.00 | 40 | 1012.1 |
| 20260904184003 | 83 | 13 | 2.0 | 5.0 | 0.00 | 0.00 | 0.00 | 40 | 1012.1 |
| 20260904183503 | 83 | 14 | 2.0 | 4.0 | 0.00 | 0.00 | 0.00 | 39 | 1012.0 |
| 20260904183003 | 84 | 12 | 3.0 | 4.0 | 0.00 | 0.00 | 0.00 | 39 | 1012.1 |
| 20260904182503 | 84 | 14 | 5.0 | 7.0 | 0.00 | 0.00 | 0.00 | 39 | 1011.9 |
| 20260904182003 | 84 | 14 | 4.0 | 6.0 | 0.00 | 0.00 | 0.00 | 38 | 1011.9 |
| 20260904181503 | 84 | 15 | 4.0 | 8.0 | 0.00 | 0.00 | 0.00 | 38 | 1011.8 |
| 20260904181003 | 85 | 8 | 5.0 | 9.0 | 0.00 | 0.00 | 0.00 | 37 | 1011.8 |
| 20260904180503 | 85 | 5 | 5.0 | 10.0 | 0.00 | 0.00 | 0.00 | 37 | 1011.7 |
| 20260904180004 | 85 | 17 | 6.0 | 10.0 | 0.00 | 0.00 | 0.00 | 37 | 1011.6 |
| 20260904175503 | 86 | 15 | 6.0 | 10.0 | 0.00 | 0.00 | 0.00 | 36 | 1011.6 |
| 20260904175003 | 86 | 12 | 7.0 | 11.0 | 0.00 | 0.00 | 0.00 | 36 | 1011.5 |
| 20260904174503 | 86 | 17 | 7.0 | 11.0 | 0.00 | 0.00 | 0.00 | 35 | 1011.4 |
| 20260904174003 | 87 | 20 | 6.0 | 11.0 | 0.00 | 0.00 | 0.00 | 35 | 1011.5 |
| 20260904173503 | 87 | 13 | 6.0 | 12.0 | 0.00 | 0.00 | 0.00 | 34 | 1011.3 |
| 20260904173003 | 87 | 20 | 8.0 | 13.0 | 0.00 | 0.00 | 0.00 | 34 | 1011.4 |
| 20260904172503 | 88 | 13 | 7.0 | 12.0 | 0.00 | 0.00 | 0.00 | 33 | 1011.3 |
| 20260904172003 | 88 | 20 | 5.0 | 10.0 | 0.00 | 0.00 | 0.00 | 32 | 1011.4 |
| 20260904171503 | 89 | 15 | 7.0 | 12.0 | 0.00 | 0.00 | 0.00 | 32 | 1011.3 |
| 20260904171003 | 89 | 17 | 7.0 | 15.0 | 0.00 | 0.00 | 0.00 | 31 | 1011.3 |
| 20260904170503 | 89 | 17 | 7.0 | 13.0 | 0.00 | 0.00 | 0.00 | 31 | 1011.3 |
| 20260904170003 | 90 | 18 | 9.0 | 14.0 | 0.00 | 0.00 | 0.00 | 29 | 1011.4 |
| 20260904165503 | 91 | 16 | 7.0 | 12.0 | 0.00 | 0.00 | 0.00 | 29 | 1011.2 |
| 20260904165003 | 91 | 17 | 9.0 | 15.0 | 0.00 | 0.00 | 0.00 | 28 | 1011.1 |
| 20260904164503 | 92 | 16 | 8.0 | 13.0 | 0.00 | 0.00 | 0.00 | 28 | 1011.1 |
| 20260904164004 | 92 | 18 | 9.0 | 16.0 | 0.00 | 0.00 | 0.00 | 28 | 1010.9 |
| 20260904163503 | 92 | 18 | 11.0 | 17.0 | 0.00 | 0.00 | 0.00 | 28 | 1010.9 |
| 20260904163003 | 93 | 17 | 12.0 | 17.0 | 0.00 | 0.00 | 0.00 | 28 | 1010.9 |
| 20260904162503 | 93 | 19 | 10.0 | 17.0 | 0.00 | 0.00 | 0.00 | 27 | 1010.9 |
| 20260904162003 | 94 | 17 | 10.0 | 15.0 | 0.00 | 0.00 | 0.00 | 27 | 1011.1 |
| 20260904161503 | 94 | 14 | 9.0 | 15.0 | 0.00 | 0.00 | 0.00 | 28 | 1011.0 |
| 20260904161003 | 94 | 9 | 9.0 | 15.0 | 0.00 | 0.00 | 0.00 | 27 | 1010.9 |
| 20260904160503 | 94 | 8 | 9.0 | 17.0 | 0.00 | 0.00 | 0.00 | 27 | 1010.9 |
| 20260904160003 | 95 | 8 | 8.0 | 14.0 | 0.00 | 0.00 | 0.00 | 27 | 1010.9 |
| 20260904155503 | 95 | 15 | 10.0 | 16.0 | 0.00 | 0.00 | 0.00 | 27 | 1010.8 |
| 20260904155003 | 95 | 21 | 9.0 | 14.0 | 0.00 | 0.00 | 0.00 | 27 | 1010.8 |
| 20260904154503 | 95 | 4 | 9.0 | 16.0 | 0.00 | 0.00 | 0.00 | 27 | 1010.9 |
| 20260904154003 | 96 | 4 | 9.0 | 14.0 | 0.00 | 0.00 | 0.00 | 27 | 1010.9 |
| 20260904153503 | 96 | 6 | 10.0 | 17.0 | 0.00 | 0.00 | 0.00 | 26 | 1010.9 |
| 20260904153003 | 96 | 5 | 8.0 | 14.0 | 0.00 | 0.00 | 0.00 | 27 | 1010.9 |
| 20260904152503 | 96 | 18 | 10.0 | 18.0 | 0.00 | 0.00 | 0.00 | 27 | 1010.9 |
| 20260904152003 | 96 | 13 | 11.0 | 17.0 | 0.00 | 0.00 | 0.00 | 27 | 1010.9 |
| 20260904151503 | 96 | 2 | 8.0 | 12.0 | 0.00 | 0.00 | 0.00 | 27 | 1011.0 |
| 20260904151003 | 96 | 1 | 9.0 | 13.0 | 0.00 | 0.00 | 0.00 | 26 | 1010.9 |
| 20260904150503 | 96 | 2 | 8.0 | 16.0 | 0.00 | 0.00 | 0.00 | 26 | 1010.9 |
| 20260904150004 | 96 | 356 | 9.0 | 14.0 | 0.00 | 0.00 | 0.00 | 27 | 1010.8 |